Location: *
(43.0409°N, 0.1694°E)
Time: 12:08:57
(UTC+00:00)

Cosmos 2181 Rocket - Pass Details

Date: 03 October 2023
Orbit: 951 x 1014 km, 82.9° (Epoch: 01 December)

Event Time Altitude Azimuth Distance (km) Brightness Sun altitude
Rises 05:26:27 0° 351° (N) 3,668 6.9 -6.7°
Reaches altitude 10° 05:28:58 10° 350° (N) 2,709 6.2 -6.2°
Maximum altitude 05:35:09 81° 265° (W) 972 4.0 -5.1°
Drops below altitude 10° 05:41:15 10° 178° (S) 2,669 6.4 -4.0°
Sets 05:43:43 0° 178° (S) 3,610 7.0 -3.5°
